This demonstration page uses our WeatherBlox Daily Observations layout. Learn more.

39.29038, -76.61219

Hourly Observations for December 23, 2019

Temp ( °F °C ) Dew Point ( °F °C ) Humidity (%) Winds ( mph kmh ) Pressure ( in mb ) Visibility ( mi km ) Precip ( " mm )
12:54 am 00:54 undefined 33 0.6 28 -2.2 82 82 undefined N/A 30.23 1024 N/A 0 0
1:54 am 01:54 undefined 33 0.6 27 -2.8 78 78 undefined N/A 30.22 1023 N/A 0 0
2:54 am 02:54 undefined 32 0 27 -2.8 82 82 undefined N/A 30.22 1023 N/A 0 0
3:54 am 03:54 undefined 32 0 27 -2.8 82 82 undefined N/A 30.21 1023 N/A 0 0
4:54 am 04:54 undefined 32 0 27 -2.8 82 82 undefined N/A 30.19 1022 N/A 0 0
5:54 am 05:54 undefined 32 0 27 -2.8 82 82 undefined N/A 30.2 1023 N/A 0 0
6:54 am 06:54 undefined 32 0 27 -2.8 82 82 undefined N/A 30.21 1023 N/A 0 0
7:54 am 07:54 undefined 32 0 27 -2.8 82 82 undefined N/A 30.2 1023 N/A 0 0
8:54 am 08:54 undefined 35 1.7 28 -2.2 76 76 undefined N/A 30.22 1023 N/A 0 0
9:54 am 09:54 undefined 37 2.8 29 -1.7 73 73 undefined N/A 30.23 1024 N/A 0 0
10:54 am 10:54 undefined 41 5 31 -0.6 67 67 undefined N/A 30.21 1023 N/A 0 0
11:54 am 11:54 undefined 44 6.7 32 0 63 63 undefined N/A 30.16 1022 N/A 0 0
12:54 pm 12:54 undefined 46 7.8 33 0.6 61 61 undefined N/A 30.15 1021 N/A 0 0
1:54 pm 13:54 undefined 50 10 33 0.6 52 52 undefined N/A 30.13 1020 N/A 0 0
2:54 pm 14:54 undefined 49 9.4 33 0.6 55 55 undefined N/A 30.06 1018 N/A 0 0
3:54 pm 15:54 undefined 45 7.2 33 0.6 63 63 undefined N/A 30.08 1019 N/A 0 0
4:54 pm 16:54 undefined 44 6.7 33 0.6 65 65 undefined N/A 30.08 1019 N/A 0 0
5:54 pm 17:54 undefined 42 5.6 33 0.6 71 71 undefined N/A 30.06 1018 N/A 0 0
6:54 pm 18:54 undefined 42 5.6 33 0.6 71 71 undefined N/A 30.06 1018 N/A 0 0
7:54 pm 19:54 undefined 41 5 34 1.1 76 76 undefined N/A 30.05 1018 N/A 0 0
8:54 pm 20:54 undefined 41 5 34 1.1 76 76 undefined N/A 30.02 1017 N/A 0 0
9:54 pm 21:54 undefined 41 5 33 0.6 73 73 undefined N/A 30.04 1017 N/A 0 0
10:54 pm 22:54 undefined 39 3.9 32 0 76 76 undefined N/A 30.03 1017 N/A 0 0
11:54 pm 23:54 undefined 39 3.9 31 -0.6 73 73 undefined N/A 30.01 1016 N/A 0 0

Powered by AerisWeather